Flag for Switzerland Weather past 2 weeks in Arth, Schwyz, Switzerland

Now
55 °F

Cool.


Feels Like: 55 °F
Forecast: 44 / 62 °F
Wind: 2 mph from South

Location: Altdorf

Current Time: Sep 17, 2014 at 1:36:54 AM

Latest Report: Sep 17, 2014 at 1:00 AM


Visibility: N/A

Pressure: 29.93 "Hg

Humidity: 95%

Dew point: 54 °F

Location of ArthLocation

Historic Weather in Arth — Graph

°F

Arth temperature yesterday

Maximum temperature yesterday: 71 °F (at 3:00 PM)
Minimum temperature yesterday: 53 °F (at 7:00 AM)
Average temperature yesterday: 62 °F

Past Weeks' High & Low Weather Summary

 TemperatureHumidityPressure
High75 °F (Sep 7, 4:00 PM)98% (Sep 2, 4:00 AM)30.19 "Hg (Sep 2, 4:00 AM)
Low44 °F (Sep 2, 7:00 AM)54% (Sep 7, 4:00 PM)29.84 "Hg (Sep 6, 4:00 PM)
Average60 °F83%30.00 "Hg
* Reported Midnight between Sep 1 and Sep 2 — Midnight between Sep 16 and Sep 17, Arth, Weather by CustomWeather, © 2014

Note: Actual official high and low records may vary slightly from our data, if they occured in-between our weather recording intervals... More about our weather records

Advertising

Arth weather history for previous 24 hours

 ConditionsComfort  
Time TempWeatherWind HumidityBarometerVisibility
12:00 AM
Sep 17
56 °FCool.1 mph95%29.94 "HgN/A
11:00 PM
Sep 16
59 °FPassing clouds.No wind92%29.94 "Hg14 mi
10:00 PM60 °FCool.2 mph88%29.94 "HgN/A
9:00 PM61 °FCool.2 mph89%29.94 "HgN/A
8:00 PM64 °FPassing clouds.2 mph85%29.92 "Hg16 mi
7:00 PM66 °FMild.1 mph85%29.91 "HgN/A
6:00 PM69 °FMild.1 mph72%29.90 "HgN/A
5:00 PM69 °FScattered clouds.1 mph76%29.90 "Hg16 mi
4:00 PM70 °FMild.3 mph63%29.90 "HgN/A
3:00 PM71 °FMild.8 mph58%29.90 "HgN/A
2:00 PM71 °FPassing clouds.7 mph58%29.91 "Hg17 mi
1:00 PM68 °FMild.6 mph63%29.93 "HgN/A
12:00 PM67 °FMild.5 mph63%29.96 "HgN/A
11:00 AM65 °FPassing clouds.3 mph68%29.97 "Hg16 mi
10:00 AM63 °FMild.No wind69%30.00 "HgN/A
9:00 AM60 °FCool.2 mph80%30.00 "HgN/A
8:00 AM54 °FScattered clouds.2 mph92%30.02 "Hg14 mi
7:00 AM53 °FCool.2 mph92%30.02 "HgN/A
6:00 AM56 °FCool.2 mph88%30.01 "HgN/A
5:00 AM57 °FPassing clouds.2 mph87%30.00 "Hg12 mi
4:00 AM55 °FCool.2 mph93%30.00 "HgN/A
3:00 AM58 °FCool.2 mph88%29.99 "HgN/A
2:00 AM61 °FOvercast.3 mph83%29.97 "Hg9 mi
1:00 AM62 °FCool.5 mph78%29.97 "HgN/A
Weather by CustomWeather, © 2014

See weather overviewHow to use our weather pages